SCP
-0 -0 -0 -0 0 0 0 0 0 0 0 0 -0 -0 -0 -0 -0 -0 -0 -0 -0 -0 -0 -0 -0 0 -0 -0 0 -0 -0 0 0 -0 -0 -0 -0 -0 -0 -0 -0 -0 0 0 -0 -0 0
-0 -0 -0 -0 -0 0 0 0 0 0 0 0 0 -0 -0 -0 -0 -0 -0 -0 -0 -0 -0 -0 -0 -0 -0 -0 0 -0 -0 -0 -0 -0 -0 -0 -0 -0 -0 0 -0 -0 -0 -0 0 0 0
-0 -0 -0 -0 -0 -0 -0 0 0 0 0 0 0 0 -0 -0 -0 -0 -0 -0 -0 -0 -0 -0 -0 -0 0 0 0 0 0 -0 0 0 -0 -0 0 -0 0 -0 -0 -0 -0 -0 -0 0 0
-0 -0 -0 -0 -0 -0 -0 0 0 0 0 0 0 -0 -0 -0 -0 -0 -0 -0 -0 -0 0 -0 -0 0 0 0 0 -0 -0 0 0 0 -0 -0 0 -0 -0 -0 0 0 0 0 -0 -0 0
-0 -0 -0 -0 -0 -0 -0 0 0 0 0 0 0 -0 -0 -0 0 -0 -0 -0 -0 -0 -0 -0 0 -0 0 0 0 -0 -0 -0 0 -0 0 0 0 0 0 0 0 0 0 0 0 -0 0
-0 -0 -0 -0 -0 -0 -0 -0 0 0 0 0 0 0 0 0 0 0 -0 0 -0 -0 0 -0 -0 0 0 0 0 0 0 -0 -0 0 -0 -0 -0 0 0 0 0 0 0 -0 0 -0 -0
-0 -0 -0 -0 -0 -0 -0 -0 -0 0 0 0 -0 -0 0 0 0 0 -0 0 0 -0 -0 -0 -0 -0 -0 -0 0 0 -0 -0 -0 0 0 -0 0 0 0 0 0 0 0 -0 -0 0 0
-0 -0 -0 -0 -0 -0 -0 -0 -0 -0 0 0 0 -0 -0 -0 0 0 0 0 0 -0 0 0 -0 -0 -0 -0 -0 -0 0 0 -0 0 0 0 0 0 0 0 0 -0 0 0 -0 0 -0
-0 0 -0 -0 -0 -0 -0 -0 -0 -0 -0 -0 -0 -0 0 -0 -0 0 0 -0 0 -0 -0 -0 0 -0 -0 -0 -0 -0 0 0 -0 0 -0 0 -0 -0 0 0 0 0 0 0 0 0 0
0 0 -0 -0 -0 -0 -0 -0 -0 -0 -0 -0 -0 -0 -0 -0 -0 0 0 -0 0 -0 -0 -0 -0 -0 -0 0 -0 0 -0 0 0 -0 0 -0 0 0 0 -0 -0 -0 0 0 -0 -0 0
-0 -0 -0 -0 -0 -0 -0 -0 -0 -0 -0 -0 -0 -0 -0 -0 -0 0 -0 0 0 -0 -0 0 0 0 -0 0 -0 -0 0 -0 0 -0 -0 -0 0 0 -0 0 -0 0 0 -0 0 0 0
0 0 0 0 0 -0 -0 -0 -0 -0 -0 -0 -0 0 -0 -0 -0 -0 0 -0 -0 0 -0 -0 0 -0 -0 -0 -0 -0 -0 -0 -0 0 0 0 0 0 -0 -0 0 0 0 -0 -0 -0 -0
0 0 0 0 0 0 -0 -0 -0 -0 -0 -0 -0 0 -0 -0 -0 -0 -0 -0 -0 -0 0 0 -0 -0 0 0 -0 -0 -0 -0 0 -0 -0 -0 -0 0 -0 -0 0 0 -0 -0 0 0 0
0 0 0 0 0 0 0 0 -0 -0 -0 -0 -0 0 0 -0 -0 -0 -0 0 0 0 -0 0 -0 0 0 0 -0 0 -0 -0 0 0 0 0 0 0 -0 0 0 0 0 0 0 0 0
0 0 0 0 0 0 0 0 0 -0 -0 -0 -0 0 0 -0 0 -0 -0 0 -0 0 0 -0 -0 -0 -0 0 0 0 -0 -0 0 -0 -0 0 0 0 0 0 -0 -0 0 0 -0 0 -0
0 0 0 0 0 0 0 0 0 0 -0 -0 -0 -0 0 0 0 -0 -0 0 -0 0 0 0 0 0 -0 -0 -0 -0 -0 0 0 0 0 -0 -0 0 0 0 0 0 0 0 0 0 -0
0 0 0 0 0 0 0 0 0 0 -0 -0 -0 0 0 0 0 -0 -0 -0 0 0 0 -0 -0 0 -0 0 0 0 0 0 0 -0 0 0 0 0 0 0 0 0 0 0 0 0 0
0 0 0 0 0 0 0 0 0 0 0 0 0 0 0 0 0 0 -0 -0 0 0 0 -0 0 0 0 0 0 -0 0 0 -0 0 0 0 0 0 0 0 0 -0 -0 0 0 -0 -0
0 0 0 0 0 0 0 0 0 0 0 0 0 -0 0 0 0 -0 0 -0 0 -0 0 0 0 0 0 -0 0 -0 0 0 0 0 0 -0 0 -0 0 0 0 0 0 0 0 -0 -0
0 0 0 0 0 0 0 0 0 0 0 0 0 0 0 0 0 -0 0 0 0 0 -0 0 0 0 0 0 -0 0 0 0 0 0 0 0 0 0 0 0 0 0 -0 0 0 0 0
0 0 0 0 0 0 0 0 0 0 0 0 0 0 0 -0 0 0 0 -0 0 0 0 0 0 0 -0 0 -0 0 0 0 0 0 0 0 -0 -0 -0 0 -0 -0 0 0 -0 -0 0
0 0 0 0 0 0 0 0 0 0 0 0 0 0 0 0 0 0 0 0 0 -0 0 0 0 0 0 0 0 0 0 0 0 0 0 -0 0 -0 -0 0 0 -0 -0 0 0 -0 -0
0 0 0 0 0 0 0 0 0 0 0 0 0 0 0 0 0 0 0 0 0 0 0 0 0 0 0 0 0 0 0 0 -0 0 -0 0 0 0 -0 -0 0 0 0 0 0 0 -0
0 0 0 0 0 0 0 0 0 0 0 0 0 0 0 0 0 0 0 0 0 0 0 0 0 0 0 0 0 0 0 -0 0 -0 0 0 0 0 0 0 0 0 0 0 0 0 0
0 0 0 0 0 0 0 0 0 0 0 0 0 0 0 0 0 0 0 0 0 0 0 0 0 0 0 0 0 0 0 -0 0 0 0 0 0 0 0 0 0 -0 0 0 0 0 0
0 0 0 0 0 0 0 0 0 0 0 0 0 0 0 0 0 0 0 0 0 0 0 0 0 0 0 0 0 0 0 0 0 0 0 -0 0 0 0 0 0 0 0 0 0 0 0
0 0 0 0 0 0 0 0 0 0 0 0 0 0 0 0 0 0 0 0 0 0 0 0 0 0 0 0 0 0 0 0 0 0 0 0 0 0 0 0 -0 0 0 0 0 0 0
0 0 0 0 0 0 0 0 0 0 0 0 0 0 0 0 0 0 0 0 0 0 0 0 0 0 0 0 0 0 0 0 0 0 0 0 0 0 0 0 0 0 0 0 0 0 0
0 0 0 0 0 0 0 0 0 0 0 0 0 0 0 0 0 -0 0 0 0 0 0 0 0 0 0 0 0 0 0 0 0 0 0 0 0 0 0 0 0 0 0 0 0 0 0
Wind_Speed_500mb
29 28 27 29 29 28 26 24 24 24 23 22 21 21 21 20 19 16 14 14 15 13 10 4 2 7 12 11 4 12 5 14 15 18 14 19 24 18 1 22 17 36 13 12 9 8 11
32 30 30 31 30 28 26 25 25 25 25 24 23 22 22 20 16 14 15 16 16 11 6 1 3 10 5 16 5 4 11 15 11 13 18 24 19 1 40 15 15 34 19 15 4 19 23
37 35 33 32 30 28 27 26 26 26 26 27 26 24 21 17 12 12 14 16 13 9 3 5 12 8 11 6 4 6 12 11 10 15 18 21 17 33 9 24 49 28 19 14 8 5 15
38 36 35 34 33 31 30 28 27 28 29 30 29 26 19 11 8 12 12 10 12 12 15 19 11 3 3 5 7 7 11 12 14 14 20 17 15 21 25 16 15 20 17 6 3 7 4
40 39 37 37 37 36 33 30 29 31 31 32 31 26 13 6 10 10 4 7 12 14 18 14 1 11 10 7 9 13 10 9 13 14 16 10 14 29 18 16 5 13 11 12 6 21 8
46 46 45 43 41 40 38 35 32 31 33 34 33 21 6 7 13 6 3 4 8 12 7 10 14 16 10 8 12 11 5 9 14 14 17 17 19 26 25 26 10 9 6 9 23 18 22
47 49 50 50 47 44 41 37 34 33 35 35 31 14 5 6 13 13 5 9 12 9 19 26 14 7 12 7 10 14 11 10 12 17 23 26 20 25 19 20 8 13 23 26 30 17 15
49 49 49 49 49 48 45 42 39 35 33 32 27 9 4 3 8 9 10 7 13 13 7 2 3 11 4 11 15 13 13 21 16 21 28 17 26 36 21 23 14 18 3 16 4 14 3
49 49 49 49 49 50 50 47 43 36 31 29 25 7 4 4 3 5 11 11 13 14 17 11 7 15 13 19 9 19 21 17 16 23 27 31 18 27 7 18 17 18 18 15 11 8 5
49 49 49 49 50 50 50 50 45 38 30 26 22 9 8 9 8 13 9 8 14 14 14 18 20 11 13 12 13 8 18 16 10 20 11 20 33 4 4 18 25 23 19 5 14 27 9
49 51 51 52 52 53 51 50 49 42 31 23 20 13 14 15 14 15 11 14 19 15 10 7 14 5 2 16 15 14 8 11 25 15 9 23 18 12 26 23 25 26 9 22 27 21 16
46 48 50 53 56 56 55 53 50 47 37 25 19 16 16 17 15 14 16 21 20 14 4 15 11 18 26 16 12 11 12 15 19 16 15 32 12 13 22 19 12 26 14 21 30 22 26
44 46 49 52 56 59 60 57 53 50 43 30 20 18 18 27 14 10 18 19 14 15 5 12 16 13 18 16 14 20 21 21 18 16 22 27 28 18 22 24 19 22 27 20 26 24 6
46 47 49 51 54 57 60 61 58 53 50 33 22 19 24 31 22 18 16 19 21 7 10 9 7 6 13 12 14 6 14 24 15 19 24 16 23 28 23 21 31 16 30 24 13 10 14
47 49 51 53 56 57 59 61 61 54 51 37 19 17 21 14 19 15 21 19 26 3 10 9 13 21 17 16 12 10 11 15 12 10 18 14 10 20 6 17 24 30 21 32 14 13 24
45 48 51 53 56 57 59 60 62 57 48 40 21 19 25 18 19 14 18 31 36 8 10 9 21 6 14 23 15 17 11 12 4 5 19 26 11 12 16 10 26 23 7 14 9 11 37
49 49 51 53 54 56 58 59 59 59 49 38 18 18 22 22 17 23 20 36 13 6 7 13 17 12 16 19 9 23 11 14 3 11 5 18 22 4 7 1 28 14 10 18 13 13 10
54 51 49 53 56 56 56 56 56 56 51 35 15 21 27 24 24 28 26 40 9 8 12 19 11 18 14 13 10 14 5 11 18 14 20 21 20 23 8 9 27 21 12 35 22 5 3
60 56 50 51 53 55 54 52 49 49 50 50 20 36 25 24 21 24 41 29 7 24 14 16 12 14 9 16 8 20 6 23 4 12 20 22 18 14 22 15 43 7 11 15 17 12 13
55 54 52 51 50 51 51 48 45 39 38 38 16 11 31 33 36 40 43 35 25 28 31 11 9 2 12 15 17 13 12 9 19 11 15 14 24 26 21 5 14 8 29 13 3 12 12
46 47 49 50 49 49 49 43 40 32 30 33 14 16 39 19 23 31 37 41 35 23 32 20 15 18 20 13 17 18 18 19 20 26 11 13 25 29 33 4 21 17 17 28 11 23 21
47 47 47 48 47 47 44 41 36 31 25 20 18 33 37 43 47 38 31 32 37 32 26 26 26 21 20 18 17 22 16 14 13 15 16 17 23 23 24 30 31 22 22 25 33 11 4
49 49 48 45 44 44 43 40 34 28 21 14 24 28 29 28 34 29 28 36 32 31 39 37 24 25 24 20 17 7 16 24 27 16 18 18 21 18 26 25 16 17 16 16 22 33 41
46 42 41 44 41 42 38 37 33 27 21 19 20 29 28 23 22 27 36 44 39 33 29 41 20 23 6 7 6 13 28 35 23 20 17 22 16 17 21 26 25 12 5 19 19 14 4
41 40 39 40 44 40 35 35 33 29 23 22 19 20 24 20 33 33 40 38 45 39 26 36 24 25 22 11 7 15 18 18 20 21 21 17 13 14 19 22 27 31 25 13 22 19 27
42 40 40 44 43 36 34 33 32 29 26 21 16 19 21 20 20 33 38 40 23 18 25 34 32 5 13 11 15 18 13 8 3 6 11 18 15 12 18 22 25 15 17 15 12 12 41
38 40 40 38 37 35 33 30 29 28 21 18 16 14 15 30 53 32 27 25 29 26 19 14 32 28 24 13 18 18 19 7 12 9 15 9 12 18 18 17 20 17 13 8 12 9 28
36 33 34 35 35 32 27 24 23 21 18 16 14 15 18 28 55 45 36 36 32 27 16 26 24 22 20 19 17 16 7 2 10 18 11 14 16 19 15 22 23 25 10 7 11 13 19
35 33 32 34 33 27 20 17 18 17 17 16 8 7 16 27 33 42 45 43 43 32 26 15 26 10 9 11 14 12 6 11 12 15 19 18 21 17 16 13 19 11 12 8 9 14 14
Wind_Direction_500mb
41 37 33 29 26 23 19 16 10 5 1 357 351 345 341 340 341 343 347 347 344 340 341 337 225 196 182 249 0 328 162 166 184 191 246 236 239 246 200 153 245 5 99 126 89 8 47
42 37 32 28 25 22 19 16 11 7 1 356 351 343 339 337 338 340 345 348 348 341 336 293 186 175 222 248 4 341 141 153 162 226 243 239 252 250 269 178 176 209 101 109 62 7 107
38 34 30 26 24 23 20 15 12 8 2 356 350 344 337 332 335 346 349 354 9 18 39 144 142 173 256 348 144 157 180 193 222 223 256 243 271 244 259 69 286 112 130 117 119 345 68
36 33 29 25 23 22 18 14 9 6 2 358 352 345 336 339 356 351 354 20 45 63 103 137 147 313 340 140 161 183 198 205 218 240 264 305 276 305 302 100 244 168 137 130 237 182 42
37 33 30 25 21 19 15 10 7 3 360 358 353 347 349 36 9 351 39 75 82 106 131 149 167 299 135 242 203 180 195 224 221 230 239 279 254 260 164 171 189 19 53 318 221 185 123
37 35 31 26 21 15 11 8 3 360 359 359 357 357 40 57 19 46 111 87 127 134 169 237 249 266 192 180 154 177 205 208 201 217 230 231 235 248 240 236 192 157 139 28 241 189 202
31 30 28 25 20 14 9 5 0 359 360 359 359 5 100 69 53 56 0 271 265 231 213 275 123 111 129 120 163 194 189 185 213 216 227 200 221 234 261 41 27 163 183 146 208 138 183
27 24 22 20 18 15 9 4 360 358 356 357 359 7 150 115 41 52 359 292 15 345 280 143 142 89 145 171 157 174 190 213 195 217 225 189 239 256 345 157 225 253 232 113 153 114 177
23 21 18 16 14 12 10 5 360 355 351 352 353 347 219 234 329 345 353 349 348 337 279 165 234 109 136 212 123 162 203 221 217 226 211 252 227 233 289 292 257 259 255 143 141 337 138
18 16 14 13 11 9 7 5 0 355 346 344 345 320 238 238 303 321 266 334 332 318 278 141 195 124 180 214 121 146 219 274 224 249 221 243 264 273 173 251 264 246 68 343 175 191 223
14 13 12 10 8 6 4 2 360 354 344 332 332 311 244 248 294 295 292 312 319 298 263 121 107 70 139 251 127 156 205 227 258 239 263 217 209 205 263 252 254 281 182 244 300 272 155
6 7 8 7 6 4 0 358 357 353 344 327 313 298 254 259 277 292 308 302 296 244 254 137 161 196 207 183 126 93 196 254 296 272 205 277 336 280 244 268 292 301 262 245 254 237 240
359 358 357 357 358 357 356 355 353 350 343 325 298 275 259 230 227 285 297 296 243 255 106 157 211 208 226 129 149 192 183 207 231 205 209 208 241 205 256 275 243 236 262 261 243 238 249
352 353 352 352 352 352 352 352 350 348 342 327 294 267 262 241 240 274 289 255 269 14 269 68 322 235 243 169 142 175 220 229 186 266 280 227 207 203 201 235 262 229 263 260 307 265 313
346 347 348 348 347 347 347 346 346 347 345 332 296 284 253 223 229 248 256 244 238 256 53 264 154 247 184 154 296 220 231 308 80 334 332 336 1 160 269 205 238 263 242 329 138 257 256
339 340 342 343 343 343 344 343 342 344 346 335 301 271 247 202 207 228 248 263 292 329 350 301 274 214 290 162 194 214 210 120 284 114 314 305 277 220 37 235 261 301 66 278 318 252 269
333 334 337 339 340 341 341 342 341 340 345 339 295 263 213 188 201 232 244 256 224 186 243 275 281 292 256 311 252 300 139 114 142 322 287 295 296 149 257 67 7 9 20 328 313 299 286
328 327 329 333 336 336 339 341 341 339 343 343 294 270 214 190 220 237 244 256 136 206 192 267 290 309 314 352 241 243 296 40 71 329 301 303 308 297 345 145 132 127 149 277 287 34 34
319 319 322 327 332 333 336 339 342 340 346 350 312 270 233 217 241 246 253 246 195 255 190 223 239 234 5 283 247 289 0 94 61 297 33 347 307 291 263 102 349 320 258 223 282 280 145
310 312 318 324 329 327 330 334 338 336 338 340 297 277 239 216 244 266 280 292 207 209 280 293 261 317 271 238 255 276 290 249 145 271 51 320 272 286 297 14 153 251 261 166 26 282 219
307 304 309 316 323 327 325 329 333 331 330 332 256 271 292 299 228 233 257 274 283 234 192 239 237 252 251 250 260 218 240 254 207 166 221 252 264 276 286 336 224 213 275 165 179 245 286
304 303 306 309 316 322 321 322 326 328 323 305 290 326 319 299 296 302 291 253 265 266 235 192 223 248 222 254 264 297 338 329 307 163 217 257 261 277 275 271 261 236 245 252 189 43 221
300 300 302 304 311 316 316 317 321 326 325 311 314 319 301 284 288 288 277 277 257 251 272 266 225 213 244 263 227 14 323 294 286 277 299 309 318 319 296 307 338 287 271 272 340 136 203
300 301 299 301 305 310 310 311 313 316 312 290 309 314 293 285 282 277 278 286 278 279 258 259 249 235 227 90 42 280 262 258 238 274 248 232 260 288 283 298 282 272 165 287 305 315 267
302 301 301 301 305 302 304 306 307 305 305 285 284 302 296 290 288 283 281 292 280 299 244 282 248 280 203 172 265 248 236 244 243 233 238 279 253 260 268 265 270 280 51 43 29 4 355
297 299 300 301 303 303 302 301 299 299 301 285 284 277 275 289 256 320 316 313 311 287 259 232 244 279 186 200 213 245 249 240 323 351 211 250 173 254 261 279 279 8 74 47 347 276 31
295 298 299 301 304 303 300 296 293 297 304 294 243 275 272 280 276 289 284 322 327 328 314 322 293 209 219 230 247 238 260 0 235 238 169 203 279 246 231 239 258 54 65 10 276 25 56
300 301 305 304 301 298 293 290 289 303 312 305 244 261 259 273 279 282 287 290 301 292 293 344 298 241 210 228 248 260 286 42 316 287 256 273 231 249 263 263 260 6 331 312 31 350 16
301 308 307 304 303 302 290 276 287 295 300 302 291 242 270 256 265 284 280 268 255 263 293 298 259 251 267 207 230 261 168 233 171 246 241 223 247 287 301 317 203 262 274 305 319 320 339
Wind_Speed_850mb
29 28 27 29 29 28 26 24 24 24 23 22 21 21 21 20 19 16 14 14 15 13 10 4 2 7 12 11 4 12 5 14 15 18 14 19 24 18 1 22 17 36 13 12 9 8 11
32 30 30 31 30 28 26 25 25 25 25 24 23 22 22 20 16 14 15 16 16 11 6 1 3 10 5 16 5 4 11 15 11 13 18 24 19 1 40 15 15 34 19 15 4 19 23
37 35 33 32 30 28 27 26 26 26 26 27 26 24 21 17 12 12 14 16 13 9 3 5 12 8 11 6 4 6 12 11 10 15 18 21 17 33 9 24 49 28 19 14 8 5 15
38 36 35 34 33 31 30 28 27 28 29 30 29 26 19 11 8 12 12 10 12 12 15 19 11 3 3 5 7 7 11 12 14 14 20 17 15 21 25 16 15 20 17 6 3 7 4
40 39 37 37 37 36 33 30 29 31 31 32 31 26 13 6 10 10 4 7 12 14 18 14 1 11 10 7 9 13 10 9 13 14 16 10 14 29 18 16 5 13 11 12 6 21 8
46 46 45 43 41 40 38 35 32 31 33 34 33 21 6 7 13 6 3 4 8 12 7 10 14 16 10 8 12 11 5 9 14 14 17 17 19 26 25 26 10 9 6 9 23 18 22
47 49 50 50 47 44 41 37 34 33 35 35 31 14 5 6 13 13 5 9 12 9 19 26 14 7 12 7 10 14 11 10 12 17 23 26 20 25 19 20 8 13 23 26 30 17 15
49 49 49 49 49 48 45 42 39 35 33 32 27 9 4 3 8 9 10 7 13 13 7 2 3 11 4 11 15 13 13 21 16 21 28 17 26 36 21 23 14 18 3 16 4 14 3
49 49 49 49 49 50 50 47 43 36 31 29 25 7 4 4 3 5 11 11 13 14 17 11 7 15 13 19 9 19 21 17 16 23 27 31 18 27 7 18 17 18 18 15 11 8 5
49 49 49 49 50 50 50 50 45 38 30 26 22 9 8 9 8 13 9 8 14 14 14 18 20 11 13 12 13 8 18 16 10 20 11 20 33 4 4 18 25 23 19 5 14 27 9
49 51 51 52 52 53 51 50 49 42 31 23 20 13 14 15 14 15 11 14 19 15 10 7 14 5 2 16 15 14 8 11 25 15 9 23 18 12 26 23 25 26 9 22 27 21 16
46 48 50 53 56 56 55 53 50 47 37 25 19 16 16 17 15 14 16 21 20 14 4 15 11 18 26 16 12 11 12 15 19 16 15 32 12 13 22 19 12 26 14 21 30 22 26
44 46 49 52 56 59 60 57 53 50 43 30 20 18 18 27 14 10 18 19 14 15 5 12 16 13 18 16 14 20 21 21 18 16 22 27 28 18 22 24 19 22 27 20 26 24 6
46 47 49 51 54 57 60 61 58 53 50 33 22 19 24 31 22 18 16 19 21 7 10 9 7 6 13 12 14 6 14 24 15 19 24 16 23 28 23 21 31 16 30 24 13 10 14
47 49 51 53 56 57 59 61 61 54 51 37 19 17 21 14 19 15 21 19 26 3 10 9 13 21 17 16 12 10 11 15 12 10 18 14 10 20 6 17 24 30 21 32 14 13 24
45 48 51 53 56 57 59 60 62 57 48 40 21 19 25 18 19 14 18 31 36 8 10 9 21 6 14 23 15 17 11 12 4 5 19 26 11 12 16 10 26 23 7 14 9 11 37
49 49 51 53 54 56 58 59 59 59 49 38 18 18 22 22 17 23 20 36 13 6 7 13 17 12 16 19 9 23 11 14 3 11 5 18 22 4 7 1 28 14 10 18 13 13 10
54 51 49 53 56 56 56 56 56 56 51 35 15 21 27 24 24 28 26 40 9 8 12 19 11 18 14 13 10 14 5 11 18 14 20 21 20 23 8 9 27 21 12 35 22 5 3
60 56 50 51 53 55 54 52 49 49 50 50 20 36 25 24 21 24 41 29 7 24 14 16 12 14 9 16 8 20 6 23 4 12 20 22 18 14 22 15 43 7 11 15 17 12 13
55 54 52 51 50 51 51 48 45 39 38 38 16 11 31 33 36 40 43 35 25 28 31 11 9 2 12 15 17 13 12 9 19 11 15 14 24 26 21 5 14 8 29 13 3 12 12
46 47 49 50 49 49 49 43 40 32 30 33 14 16 39 19 23 31 37 41 35 23 32 20 15 18 20 13 17 18 18 19 20 26 11 13 25 29 33 4 21 17 17 28 11 23 21
47 47 47 48 47 47 44 41 36 31 25 20 18 33 37 43 47 38 31 32 37 32 26 26 26 21 20 18 17 22 16 14 13 15 16 17 23 23 24 30 31 22 22 25 33 11 4
49 49 48 45 44 44 43 40 34 28 21 14 24 28 29 28 34 29 28 36 32 31 39 37 24 25 24 20 17 7 16 24 27 16 18 18 21 18 26 25 16 17 16 16 22 33 41
46 42 41 44 41 42 38 37 33 27 21 19 20 29 28 23 22 27 36 44 39 33 29 41 20 23 6 7 6 13 28 35 23 20 17 22 16 17 21 26 25 12 5 19 19 14 4
41 40 39 40 44 40 35 35 33 29 23 22 19 20 24 20 33 33 40 38 45 39 26 36 24 25 22 11 7 15 18 18 20 21 21 17 13 14 19 22 27 31 25 13 22 19 27
42 40 40 44 43 36 34 33 32 29 26 21 16 19 21 20 20 33 38 40 23 18 25 34 32 5 13 11 15 18 13 8 3 6 11 18 15 12 18 22 25 15 17 15 12 12 41
38 40 40 38 37 35 33 30 29 28 21 18 16 14 15 30 53 32 27 25 29 26 19 14 32 28 24 13 18 18 19 7 12 9 15 9 12 18 18 17 20 17 13 8 12 9 28
36 33 34 35 35 32 27 24 23 21 18 16 14 15 18 28 55 45 36 36 32 27 16 26 24 22 20 19 17 16 7 2 10 18 11 14 16 19 15 22 23 25 10 7 11 13 19
35 33 32 34 33 27 20 17 18 17 17 16 8 7 16 27 33 42 45 43 43 32 26 15 26 10 9 11 14 12 6 11 12 15 19 18 21 17 16 13 19 11 12 8 9 14 14
Wind_Direction_850mb
41 37 33 29 26 23 19 16 10 5 1 357 351 345 341 340 341 343 347 347 344 340 341 337 225 196 182 249 0 328 162 166 184 191 246 236 239 246 200 153 245 5 99 126 89 8 47
42 37 32 28 25 22 19 16 11 7 1 356 351 343 339 337 338 340 345 348 348 341 336 293 186 175 222 248 4 341 141 153 162 226 243 239 252 250 269 178 176 209 101 109 62 7 107
38 34 30 26 24 23 20 15 12 8 2 356 350 344 337 332 335 346 349 354 9 18 39 144 142 173 256 348 144 157 180 193 222 223 256 243 271 244 259 69 286 112 130 117 119 345 68
36 33 29 25 23 22 18 14 9 6 2 358 352 345 336 339 356 351 354 20 45 63 103 137 147 313 340 140 161 183 198 205 218 240 264 305 276 305 302 100 244 168 137 130 237 182 42
37 33 30 25 21 19 15 10 7 3 360 358 353 347 349 36 9 351 39 75 82 106 131 149 167 299 135 242 203 180 195 224 221 230 239 279 254 260 164 171 189 19 53 318 221 185 123
37 35 31 26 21 15 11 8 3 360 359 359 357 357 40 57 19 46 111 87 127 134 169 237 249 266 192 180 154 177 205 208 201 217 230 231 235 248 240 236 192 157 139 28 241 189 202
31 30 28 25 20 14 9 5 0 359 360 359 359 5 100 69 53 56 0 271 265 231 213 275 123 111 129 120 163 194 189 185 213 216 227 200 221 234 261 41 27 163 183 146 208 138 183
27 24 22 20 18 15 9 4 360 358 356 357 359 7 150 115 41 52 359 292 15 345 280 143 142 89 145 171 157 174 190 213 195 217 225 189 239 256 345 157 225 253 232 113 153 114 177
23 21 18 16 14 12 10 5 360 355 351 352 353 347 219 234 329 345 353 349 348 337 279 165 234 109 136 212 123 162 203 221 217 226 211 252 227 233 289 292 257 259 255 143 141 337 138
18 16 14 13 11 9 7 5 0 355 346 344 345 320 238 238 303 321 266 334 332 318 278 141 195 124 180 214 121 146 219 274 224 249 221 243 264 273 173 251 264 246 68 343 175 191 223
14 13 12 10 8 6 4 2 360 354 344 332 332 311 244 248 294 295 292 312 319 298 263 121 107 70 139 251 127 156 205 227 258 239 263 217 209 205 263 252 254 281 182 244 300 272 155
6 7 8 7 6 4 0 358 357 353 344 327 313 298 254 259 277 292 308 302 296 244 254 137 161 196 207 183 126 93 196 254 296 272 205 277 336 280 244 268 292 301 262 245 254 237 240
359 358 357 357 358 357 356 355 353 350 343 325 298 275 259 230 227 285 297 296 243 255 106 157 211 208 226 129 149 192 183 207 231 205 209 208 241 205 256 275 243 236 262 261 243 238 249
352 353 352 352 352 352 352 352 350 348 342 327 294 267 262 241 240 274 289 255 269 14 269 68 322 235 243 169 142 175 220 229 186 266 280 227 207 203 201 235 262 229 263 260 307 265 313
346 347 348 348 347 347 347 346 346 347 345 332 296 284 253 223 229 248 256 244 238 256 53 264 154 247 184 154 296 220 231 308 80 334 332 336 1 160 269 205 238 263 242 329 138 257 256
339 340 342 343 343 343 344 343 342 344 346 335 301 271 247 202 207 228 248 263 292 329 350 301 274 214 290 162 194 214 210 120 284 114 314 305 277 220 37 235 261 301 66 278 318 252 269
333 334 337 339 340 341 341 342 341 340 345 339 295 263 213 188 201 232 244 256 224 186 243 275 281 292 256 311 252 300 139 114 142 322 287 295 296 149 257 67 7 9 20 328 313 299 286
328 327 329 333 336 336 339 341 341 339 343 343 294 270 214 190 220 237 244 256 136 206 192 267 290 309 314 352 241 243 296 40 71 329 301 303 308 297 345 145 132 127 149 277 287 34 34
319 319 322 327 332 333 336 339 342 340 346 350 312 270 233 217 241 246 253 246 195 255 190 223 239 234 5 283 247 289 0 94 61 297 33 347 307 291 263 102 349 320 258 223 282 280 145
310 312 318 324 329 327 330 334 338 336 338 340 297 277 239 216 244 266 280 292 207 209 280 293 261 317 271 238 255 276 290 249 145 271 51 320 272 286 297 14 153 251 261 166 26 282 219
307 304 309 316 323 327 325 329 333 331 330 332 256 271 292 299 228 233 257 274 283 234 192 239 237 252 251 250 260 218 240 254 207 166 221 252 264 276 286 336 224 213 275 165 179 245 286
304 303 306 309 316 322 321 322 326 328 323 305 290 326 319 299 296 302 291 253 265 266 235 192 223 248 222 254 264 297 338 329 307 163 217 257 261 277 275 271 261 236 245 252 189 43 221
300 300 302 304 311 316 316 317 321 326 325 311 314 319 301 284 288 288 277 277 257 251 272 266 225 213 244 263 227 14 323 294 286 277 299 309 318 319 296 307 338 287 271 272 340 136 203
300 301 299 301 305 310 310 311 313 316 312 290 309 314 293 285 282 277 278 286 278 279 258 259 249 235 227 90 42 280 262 258 238 274 248 232 260 288 283 298 282 272 165 287 305 315 267
302 301 301 301 305 302 304 306 307 305 305 285 284 302 296 290 288 283 281 292 280 299 244 282 248 280 203 172 265 248 236 244 243 233 238 279 253 260 268 265 270 280 51 43 29 4 355
297 299 300 301 303 303 302 301 299 299 301 285 284 277 275 289 256 320 316 313 311 287 259 232 244 279 186 200 213 245 249 240 323 351 211 250 173 254 261 279 279 8 74 47 347 276 31
295 298 299 301 304 303 300 296 293 297 304 294 243 275 272 280 276 289 284 322 327 328 314 322 293 209 219 230 247 238 260 0 235 238 169 203 279 246 231 239 258 54 65 10 276 25 56
300 301 305 304 301 298 293 290 289 303 312 305 244 261 259 273 279 282 287 290 301 292 293 344 298 241 210 228 248 260 286 42 316 287 256 273 231 249 263 263 260 6 331 312 31 350 16
301 308 307 304 303 302 290 276 287 295 300 302 291 242 270 256 265 284 280 268 255 263 293 298 259 251 267 207 230 261 168 233 171 246 241 223 247 287 301 317 203 262 274 305 319 320 339